Time,TemperatureF,DewpointF,PressureIn,WindDirection,WindDirectionDegrees,WindSpeedMPH,WindSpeedGustMPH,Humidity,HourlyPrecipIn,Conditions,Clouds,dailyrainin,SoftwareType,DateUTC
2013-03-04 00:01:00,17.0,14.0,30.17,NE,47,0.0,0.0,89,0.00,,,0.00,,2013-03-04 06:01:00,
2013-03-04 00:11:00,17.0,14.0,30.17,NE,47,0.0,0.0,89,0.00,,,0.00,,2013-03-04 06:11:00,
2013-03-04 00:21:00,17.0,14.0,30.17,NE,47,0.0,0.0,89,0.00,,,0.00,,2013-03-04 06:21:00,
2013-03-04 00:32:00,17.0,14.0,30.17,NE,47,0.0,0.0,89,0.00,,,0.00,,2013-03-04 06:32:00,
2013-03-04 00:42:00,17.0,14.0,30.17,NE,47,0.0,0.0,89,0.00,,,0.00,,2013-03-04 06:42:00,
2013-03-04 00:52:00,17.0,14.0,30.17,NE,47,0.0,0.0,89,0.00,,,0.00,,2013-03-04 06:52:00,
2013-03-04 01:01:00,17.0,14.0,30.17,NE,47,0.0,0.0,89,0.00,,,0.00,,2013-03-04 07:01:00,
2013-03-04 01:11:00,17.0,14.0,30.17,NE,47,0.0,0.0,89,0.00,,,0.00,,2013-03-04 07:11:00,
2013-03-04 01:21:00,16.0,13.0,30.17,NE,47,0.0,0.0,88,0.00,,,0.00,,2013-03-04 07:21:00,
2013-03-04 01:32:00,16.0,13.0,30.18,NE,47,0.0,0.0,89,0.00,,,0.00,,2013-03-04 07:32:00,
2013-03-04 01:41:00,16.0,13.0,30.18,NE,47,0.0,0.0,89,0.00,,,0.00,,2013-03-04 07:41:00,
2013-03-04 01:51:00,15.0,12.0,30.18,NE,47,0.0,0.0,89,0.00,,,0.00,,2013-03-04 07:51:00,
2013-03-04 02:02:00,15.0,12.0,30.18,NE,47,0.0,0.0,89,0.00,,,0.00,,2013-03-04 08:02:00,
2013-03-04 02:11:00,15.0,12.0,30.18,NE,47,0.0,0.0,89,0.00,,,0.00,,2013-03-04 08:11:00,
2013-03-04 02:21:00,15.0,12.0,30.18,NE,47,0.0,0.0,89,0.00,,,0.00,,2013-03-04 08:21:00,
2013-03-04 02:32:00,14.0,11.0,30.17,NE,47,0.0,0.0,88,0.00,,,0.00,,2013-03-04 08:32:00,
2013-03-04 02:42:00,14.0,11.0,30.17,NE,47,0.0,0.0,88,0.00,,,0.00,,2013-03-04 08:42:00,
2013-03-04 02:52:00,14.0,11.0,30.18,NE,47,0.0,0.0,89,0.00,,,0.00,,2013-03-04 08:52:00,
2013-03-04 03:01:00,14.0,12.0,30.18,NE,47,0.0,0.0,90,0.00,,,0.00,,2013-03-04 09:01:00,
2013-03-04 03:11:00,14.0,12.0,30.18,NE,47,0.0,0.0,90,0.00,,,0.00,,2013-03-04 09:11:00,
2013-03-04 03:21:00,15.0,13.0,30.18,NE,47,0.0,0.0,90,0.00,,,0.00,,2013-03-04 09:21:00,
2013-03-04 03:32:00,15.0,13.0,30.18,NE,47,0.0,0.0,90,0.00,,,0.00,,2013-03-04 09:32:00,
2013-03-04 03:42:00,15.0,13.0,30.18,NE,47,0.0,0.0,90,0.00,,,0.00,,2013-03-04 09:42:00,
2013-03-04 03:51:00,15.0,12.0,30.18,NE,47,0.0,0.0,89,0.00,,,0.00,,2013-03-04 09:51:00,
2013-03-04 04:01:00,15.0,13.0,30.17,NE,47,0.0,0.0,90,0.00,,,0.00,,2013-03-04 10:01:00,
2013-03-04 04:11:00,15.0,13.0,30.17,NE,47,0.0,0.0,90,0.00,,,0.00,,2013-03-04 10:11:00,
2013-03-04 04:22:00,15.0,12.0,30.17,NE,47,0.0,0.0,89,0.00,,,0.00,,2013-03-04 10:22:00,
2013-03-04 04:32:00,15.0,12.0,30.17,NE,47,0.0,0.0,89,0.00,,,0.00,,2013-03-04 10:32:00,
2013-03-04 04:42:00,15.0,12.0,30.17,NE,47,0.0,0.0,89,0.00,,,0.00,,2013-03-04 10:42:00,
2013-03-04 04:52:00,14.0,11.0,30.17,NE,47,0.0,0.0,89,0.00,,,0.00,,2013-03-04 10:52:00,
2013-03-04 05:01:00,14.0,11.0,30.17,NE,47,0.0,0.0,89,0.00,,,0.00,,2013-03-04 11:01:00,
2013-03-04 05:11:00,14.0,11.0,30.17,NE,47,0.0,0.0,89,0.00,,,0.00,,2013-03-04 11:11:00,
2013-03-04 05:22:00,14.0,11.0,30.18,NE,47,0.0,0.0,89,0.00,,,0.00,,2013-03-04 11:22:00,
2013-03-04 05:32:00,13.0,10.0,30.17,NE,47,0.0,0.0,89,0.00,,,0.00,,2013-03-04 11:32:00,
2013-03-04 05:42:00,13.0,10.0,30.17,NE,47,0.0,0.0,89,0.00,,,0.00,,2013-03-04 11:42:00,
2013-03-04 05:52:00,13.0,10.0,30.17,NE,47,0.0,0.0,89,0.00,,,0.00,,2013-03-04 11:52:00,
2013-03-04 06:01:00,13.0,10.0,30.17,NE,47,0.0,0.0,88,0.00,,,0.00,,2013-03-04 12:01:00,
2013-03-04 06:11:00,13.0,10.0,30.17,NE,47,0.0,0.0,88,0.00,,,0.00,,2013-03-04 12:11:00,
2013-03-04 06:22:00,12.0,9.0,30.17,NE,47,0.0,0.0,89,0.00,,,0.00,,2013-03-04 12:22:00,
2013-03-04 06:32:00,12.0,9.0,30.17,NE,47,0.0,0.0,89,0.00,,,0.00,,2013-03-04 12:32:00,
2013-03-04 06:42:00,12.0,9.0,30.17,NE,47,0.0,0.0,89,0.00,,,0.00,,2013-03-04 12:42:00,
2013-03-04 06:52:00,12.0,9.0,30.17,NE,47,0.0,0.0,89,0.00,,,0.00,,2013-03-04 12:52:00,
2013-03-04 07:02:00,11.0,9.0,30.17,NE,47,0.0,0.0,90,0.00,,,0.00,,2013-03-04 13:02:00,
2013-03-04 07:11:00,11.0,9.0,30.17,NE,47,0.0,0.0,90,0.00,,,0.00,,2013-03-04 13:11:00,
2013-03-04 07:21:00,11.0,9.0,30.17,NE,47,0.0,0.0,90,0.00,,,0.00,,2013-03-04 13:21:00,
2013-03-04 07:32:00,11.0,8.0,30.18,NE,47,0.0,0.0,89,0.00,,,0.00,,2013-03-04 13:32:00,
2013-03-04 07:42:00,11.0,8.0,30.18,NE,47,0.0,0.0,89,0.00,,,0.00,,2013-03-04 13:42:00,
2013-03-04 07:51:00,12.0,9.0,30.18,NE,47,0.0,0.0,89,0.00,,,0.00,,2013-03-04 13:51:00,
2013-03-04 08:01:00,13.0,10.0,30.18,NE,47,0.0,0.0,88,0.00,,,0.00,,2013-03-04 14:01:00,
2013-03-04 08:11:00,13.0,10.0,30.18,NE,47,0.0,0.0,88,0.00,,,0.00,,2013-03-04 14:11:00,
2013-03-04 08:22:00,15.0,12.0,30.19,NE,47,0.0,0.0,86,0.00,,,0.00,,2013-03-04 14:22:00,
2013-03-04 08:32:00,17.0,12.0,30.19,NE,47,0.0,1.0,81,0.00,,,0.00,,2013-03-04 14:32:00,
2013-03-04 08:42:00,17.0,12.0,30.19,NE,47,0.0,1.0,81,0.00,,,0.00,,2013-03-04 14:42:00,
2013-03-04 08:52:00,18.0,12.0,30.19,NNE,30,0.0,3.0,78,0.00,,,0.00,,2013-03-04 14:52:00,
2013-03-04 09:01:00,20.0,13.0,30.19,NNE,15,0.0,2.0,75,0.00,,,0.00,,2013-03-04 15:01:00,
2013-03-04 09:11:00,20.0,13.0,30.19,NNE,15,0.0,2.0,75,0.00,,,0.00,,2013-03-04 15:11:00,
2013-03-04 09:22:00,21.0,13.0,30.19,ENE,74,1.0,3.0,72,0.00,,,0.00,,2013-03-04 15:22:00,
2013-03-04 09:32:00,22.0,13.0,30.19,NNE,30,0.0,3.0,69,0.00,,,0.00,,2013-03-04 15:32:00,
2013-03-04 09:42:00,22.0,13.0,30.19,NNE,30,0.0,3.0,69,0.00,,,0.00,,2013-03-04 15:42:00,
2013-03-04 09:52:00,22.0,14.0,30.19,North,355,0.0,3.0,70,0.00,,,0.00,,2013-03-04 15:52:00,
2013-03-04 10:02:00,22.0,14.0,30.19,North,9,0.0,3.0,72,0.00,,,0.00,,2013-03-04 16:02:00,
2013-03-04 10:11:00,22.0,14.0,30.19,North,9,0.0,3.0,72,0.00,,,0.00,,2013-03-04 16:11:00,
2013-03-04 10:21:00,23.0,15.0,30.18,NE,51,0.0,3.0,72,0.00,,,0.00,,2013-03-04 16:21:00,
2013-03-04 10:32:00,24.0,16.0,30.18,NNE,31,1.0,4.0,71,0.00,,,0.00,,2013-03-04 16:32:00,
2013-03-04 10:42:00,24.0,16.0,30.18,NNE,31,1.0,4.0,71,0.00,,,0.00,,2013-03-04 16:42:00,
2013-03-04 10:52:00,25.0,17.0,30.18,NE,46,1.0,3.0,70,0.00,,,0.00,,2013-03-04 16:52:00,
2013-03-04 11:02:00,25.0,16.0,30.17,North,5,1.0,4.0,69,0.00,,,0.00,,2013-03-04 17:02:00,
2013-03-04 11:11:00,25.0,16.0,30.17,North,5,1.0,4.0,69,0.00,,,0.00,,2013-03-04 17:11:00,
2013-03-04 11:22:00,27.0,17.0,30.17,NNE,13,1.0,6.0,66,0.00,,,0.00,,2013-03-04 17:22:00,
2013-03-04 11:32:00,27.0,17.0,30.17,North,9,2.0,5.0,66,0.00,,,0.00,,2013-03-04 17:32:00,
2013-03-04 11:42:00,27.0,17.0,30.17,North,9,2.0,5.0,66,0.00,,,0.00,,2013-03-04 17:42:00,
2013-03-04 11:52:00,28.0,17.0,30.17,NNE,13,1.0,5.0,64,0.00,,,0.00,,2013-03-04 17:52:00,
2013-03-04 12:01:00,29.0,18.0,30.16,NNE,28,1.0,5.0,62,0.00,,,0.00,,2013-03-04 18:01:00,
2013-03-04 12:11:00,29.0,18.0,30.16,NNE,28,1.0,5.0,62,0.00,,,0.00,,2013-03-04 18:11:00,
2013-03-04 12:21:00,30.0,19.0,30.16,NNE,15,2.0,9.0,62,0.00,,,0.00,,2013-03-04 18:21:00,
2013-03-04 12:32:00,30.0,19.0,30.15,North,5,2.0,6.0,62,0.00,,,0.00,,2013-03-04 18:32:00,
2013-03-04 12:42:00,30.0,19.0,30.15,North,5,2.0,6.0,62,0.00,,,0.00,,2013-03-04 18:42:00,
2013-03-04 12:52:00,32.0,19.0,30.15,ENE,76,2.0,8.0,58,0.00,,,0.00,,2013-03-04 18:52:00,
2013-03-04 13:02:00,31.0,20.0,30.14,East,80,3.0,6.0,64,0.00,,,0.00,,2013-03-04 19:02:00,
2013-03-04 13:11:00,31.0,20.0,30.14,East,80,3.0,6.0,64,0.00,,,0.00,,2013-03-04 19:11:00,
2013-03-04 13:22:00,31.0,21.0,30.14,NNE,17,3.0,7.0,67,0.00,,,0.00,,2013-03-04 19:22:00,
2013-03-04 13:32:00,30.0,21.0,30.13,NE,51,3.0,10.0,68,0.00,,,0.00,,2013-03-04 19:32:00,
2013-03-04 13:42:00,30.0,21.0,30.13,NE,51,3.0,10.0,68,0.00,,,0.00,,2013-03-04 19:42:00,
2013-03-04 13:52:00,30.0,23.0,30.13,NNE,30,3.0,9.0,75,0.00,,,0.00,,2013-03-04 19:52:00,
2013-03-04 14:02:00,30.0,23.0,30.13,NE,38,3.0,12.0,75,0.00,,,0.00,,2013-03-04 20:02:00,
2013-03-04 14:11:00,30.0,23.0,30.13,NE,38,3.0,12.0,75,0.00,,,0.00,,2013-03-04 20:11:00,
2013-03-04 14:22:00,30.0,23.0,30.13,NNE,29,2.0,10.0,76,0.00,,,0.00,,2013-03-04 20:22:00,
2013-03-04 14:32:00,30.0,23.0,30.12,ENE,67,1.0,10.0,74,0.00,,,0.00,,2013-03-04 20:32:00,
2013-03-04 14:42:00,30.0,23.0,30.12,ENE,67,1.0,10.0,74,0.00,,,0.00,,2013-03-04 20:42:00,
2013-03-04 14:52:00,30.0,23.0,30.12,NNE,17,3.0,10.0,75,0.00,,,0.00,,2013-03-04 20:52:00,
2013-03-04 15:02:00,30.0,23.0,30.12,ENE,69,3.0,8.0,75,0.00,,,0.00,,2013-03-04 21:02:00,
2013-03-04 15:12:00,30.0,23.0,30.12,ENE,69,3.0,8.0,75,0.00,,,0.00,,2013-03-04 21:12:00,
2013-03-04 15:22:00,30.0,23.0,30.12,NE,55,3.0,10.0,76,0.00,,,0.00,,2013-03-04 21:22:00,
2013-03-04 15:32:00,30.0,23.0,30.12,ENE,57,2.0,6.0,76,0.00,,,0.00,,2013-03-04 21:32:00,
2013-03-04 15:42:00,30.0,23.0,30.12,ENE,57,2.0,6.0,76,0.00,,,0.00,,2013-03-04 21:42:00,
2013-03-04 15:52:00,30.0,24.0,30.13,NE,53,2.0,7.0,77,0.00,,,0.00,,2013-03-04 21:52:00,
2013-03-04 16:02:00,30.0,24.0,30.13,ENE,70,2.0,6.0,77,0.00,,,0.00,,2013-03-04 22:02:00,
2013-03-04 16:12:00,30.0,24.0,30.13,ENE,70,2.0,6.0,77,0.00,,,0.00,,2013-03-04 22:12:00,
2013-03-04 16:22:00,30.0,24.0,30.13,NNE,21,3.0,8.0,77,0.00,,,0.00,,2013-03-04 22:22:00,
2013-03-04 16:32:00,30.0,24.0,30.13,NE,47,2.0,9.0,77,0.00,,,0.00,,2013-03-04 22:32:00,
2013-03-04 16:42:00,30.0,24.0,30.13,NE,47,2.0,9.0,77,0.00,,,0.00,,2013-03-04 22:42:00,
2013-03-04 16:52:00,30.0,24.0,30.12,North,5,2.0,7.0,77,0.00,,,0.00,,2013-03-04 22:52:00,
2013-03-04 17:02:00,30.0,24.0,30.12,NE,51,1.0,4.0,77,0.00,,,0.00,,2013-03-04 23:02:00,
2013-03-04 17:11:00,30.0,24.0,30.12,NE,51,1.0,4.0,77,0.00,,,0.00,,2013-03-04 23:11:00,
2013-03-04 17:22:00,30.0,24.0,30.12,NNW,346,1.0,8.0,78,0.00,,,0.00,,2013-03-04 23:22:00,
2013-03-04 17:32:00,30.0,24.0,30.12,North,5,1.0,7.0,79,0.00,,,0.00,,2013-03-04 23:32:00,
2013-03-04 17:42:00,30.0,24.0,30.12,North,5,1.0,7.0,79,0.00,,,0.00,,2013-03-04 23:42:00,
2013-03-04 17:52:00,29.0,24.0,30.12,ENE,58,2.0,7.0,80,0.00,,,0.00,,2013-03-04 23:52:00,
2013-03-04 18:02:00,29.0,24.0,30.12,ENE,61,2.0,5.0,80,0.00,,,0.00,,2013-03-05 00:02:00,
2013-03-04 18:11:00,29.0,24.0,30.12,ENE,61,2.0,5.0,80,0.00,,,0.00,,2013-03-05 00:11:00,
2013-03-04 18:21:00,29.0,24.0,30.13,NNE,26,3.0,7.0,81,0.00,,,0.00,,2013-03-05 00:21:00,
2013-03-04 18:32:00,29.0,24.0,30.13,NE,54,1.0,5.0,81,0.00,,,0.00,,2013-03-05 00:32:00,
2013-03-04 18:42:00,29.0,24.0,30.13,NE,54,1.0,5.0,81,0.00,,,0.00,,2013-03-05 00:42:00,
2013-03-04 18:51:00,29.0,24.0,30.14,NW,326,1.0,6.0,82,0.00,,,0.00,,2013-03-05 00:51:00,
2013-03-04 19:01:00,29.0,24.0,30.14,NNE,15,2.0,6.0,81,0.00,,,0.00,,2013-03-05 01:01:00,
2013-03-04 19:12:00,29.0,24.0,30.14,NNE,15,2.0,6.0,81,0.00,,,0.00,,2013-03-05 01:12:00,
2013-03-04 19:22:00,29.0,24.0,30.13,North,5,1.0,6.0,82,0.00,,,0.00,,2013-03-05 01:22:00,
2013-03-04 19:32:00,30.0,25.0,30.13,SE,131,1.0,10.0,82,0.00,,,0.00,,2013-03-05 01:32:00,
2013-03-04 19:41:00,30.0,25.0,30.13,SE,131,1.0,10.0,82,0.00,,,0.00,,2013-03-05 01:41:00,
2013-03-04 19:51:00,30.0,25.0,30.13,NE,48,1.0,9.0,82,0.00,,,0.00,,2013-03-05 01:51:00,
2013-03-04 20:01:00,30.0,25.0,30.13,NE,36,1.0,5.0,83,0.00,,,0.00,,2013-03-05 02:01:00,
2013-03-04 20:11:00,30.0,25.0,30.13,NE,36,1.0,5.0,83,0.00,,,0.00,,2013-03-05 02:11:00,
2013-03-04 20:22:00,30.0,25.0,30.12,NNW,329,1.0,9.0,82,0.00,,,0.00,,2013-03-05 02:22:00,
2013-03-04 20:32:00,30.0,25.0,30.12,East,91,1.0,5.0,82,0.00,,,0.00,,2013-03-05 02:32:00,
2013-03-04 20:42:00,30.0,25.0,30.12,East,91,1.0,5.0,82,0.00,,,0.00,,2013-03-05 02:42:00,
2013-03-04 20:52:00,30.0,25.0,30.12,North,10,1.0,5.0,81,0.00,,,0.00,,2013-03-05 02:52:00,
2013-03-04 21:02:00,30.0,25.0,30.12,NNW,333,1.0,5.0,81,0.00,,,0.00,,2013-03-05 03:02:00,
2013-03-04 21:12:00,30.0,25.0,30.12,NNW,333,1.0,5.0,81,0.00,,,0.00,,2013-03-05 03:12:00,
2013-03-04 21:22:00,30.0,25.0,30.11,ENE,71,1.0,5.0,81,0.00,,,0.00,,2013-03-05 03:22:00,
2013-03-04 21:32:00,30.0,25.0,30.12,ENE,76,1.0,5.0,80,0.00,,,0.00,,2013-03-05 03:32:00,
2013-03-04 21:42:00,30.0,25.0,30.12,ENE,76,1.0,5.0,80,0.00,,,0.00,,2013-03-05 03:42:00,
2013-03-04 21:52:00,30.0,24.0,30.11,SE,144,1.0,5.0,79,0.00,,,0.00,,2013-03-05 03:52:00,
2013-03-04 22:02:00,30.0,24.0,30.12,NNE,15,0.0,4.0,78,0.00,,,0.00,,2013-03-05 04:02:00,
2013-03-04 22:12:00,30.0,24.0,30.12,NNE,15,0.0,4.0,78,0.00,,,0.00,,2013-03-05 04:12:00,
2013-03-04 22:22:00,30.0,24.0,30.12,NNE,22,1.0,7.0,78,0.00,,,0.00,,2013-03-05 04:22:00,
2013-03-04 22:32:00,30.0,24.0,30.12,NNE,28,0.0,5.0,77,0.00,,,0.00,,2013-03-05 04:32:00,
2013-03-04 22:42:00,30.0,24.0,30.12,NNE,28,0.0,5.0,77,0.00,,,0.00,,2013-03-05 04:42:00,
2013-03-04 22:52:00,30.0,24.0,30.13,NNW,336,0.0,6.0,78,0.00,,,0.00,,2013-03-05 04:52:00,
2013-03-04 23:02:00,30.0,24.0,30.13,SE,130,0.0,3.0,77,0.00,,,0.00,,2013-03-05 05:02:00,
2013-03-04 23:11:00,30.0,24.0,30.13,SE,130,0.0,3.0,77,0.00,,,0.00,,2013-03-05 05:11:00,
2013-03-04 23:22:00,30.0,24.0,30.14,South,182,0.0,3.0,77,0.00,,,0.00,,2013-03-05 05:22:00,
2013-03-04 23:32:00,29.0,23.0,30.15,NE,51,0.0,2.0,77,0.00,,,0.00,,2013-03-05 05:32:00,
2013-03-04 23:42:00,29.0,23.0,30.15,NE,51,0.0,2.0,77,0.00,,,0.00,,2013-03-05 05:42:00,
2013-03-04 23:52:00,29.0,23.0,30.16,East,99,0.0,1.0,77,0.00,,,0.00,,2013-03-05 05:52:00,